Regional Weather Roundup
Issued by NWS

Home | Current Version | Previous Version | Text Only | Print | Product List | Glossary On
Versions: 1 2 3 4 5 6 7 8 9 10 11 12 13 14 15 16 17 18 19 20 21 22 23 24 25 26 27 28 29 30 31 32 33 34 35 36 37 38 39 40 41 42 43 44 45 46 47 48 49 50
000
ASUS46 KPQR 230210
RWROR

OREGON REGIONAL WEATHER ROUNDUP
NATIONAL WEATHER SERVICE PORTLAND OR
700 PM PDT SUN APR 22 2018

NOTE: "FAIR" INDICATES FEW OR NO CLOUDS BELOW 12,000 FEET WITH
NO SIGNIFICANT WEATHER AND/OR OBSTRUCTIONS TO VISIBILITY.

ORZ001>013-230300-
NORTHWEST OREGON


CITY           SKY/WX    TMP DP  RH WIND       PRES   REMARKS
ASTORIA        SUNNY     53  42  66 NW14      30.28F
TILLAMOOK      SUNNY     52  43  71 W6        30.28S
NEWPORT        SUNNY     52  45  76 N13G21    30.27F
PORTLAND       SUNNY     62  35  36 NW10G17   30.23F
VANCOUVER WA   SUNNY     63  34  33 NW9       30.23F
SCAPPOOSE      SUNNY     61  30  31 NW9       30.23F
HILLSBORO      SUNNY     62  33  33 N9        30.23F
AURORA         SUNNY     63  31  30 NE8       30.23F
MCMINNVILLE    SUNNY     61  33  35 N8        30.22F
SALEM          SUNNY     63  28  26 N14       30.20F
CORVALLIS      SUNNY     62  36  37 N6        30.22S
EUGENE         SUNNY     58  39  49 NE10      30.20F
$$

ORZ021-028-230300-
SOUTHWEST OREGON


CITY           SKY/WX    TMP DP  RH WIND       PRES   REMARKS
NORTH BEND     SUNNY     53  46  77 N21       30.22F
BROOKINGS      SUNNY     65  42  43 NW12      30.03F
ROSEBURG       SUNNY     64  20  18 N10       30.15F
SEXTON SUMMIT  SUNNY     48  27  44 VRB7      30.14R
GRANTS PASS    LGT RAIN  66  23  19 NW9G18    30.13R
MEDFORD        SUNNY     68  35  29 N10       30.07R
$$

ORZ014>016-041-230300-
COLUMBIA GORGE


CITY           SKY/WX    TMP DP  RH WIND       PRES   REMARKS
TROUTDALE      SUNNY     64  35  34 NW5       30.22F
HOOD RIVER     CLEAR     61  32  33 CALM      30.21F
THE DALLES     CLEAR     65  30  27 E5        30.21F
$$

ORZ029>031-041-044-049-050-061>064-502-503-505>511-230300-
EASTERN OREGON


CITY           SKY/WX    TMP DP  RH WIND       PRES   REMARKS
MADRAS         CLEAR     54  25  32 N13       30.23S
REDMOND        CLEAR     55  25  31 N14       30.19S
BEND           CLEAR     55  21  26 N10       30.20S
PRINEVILLE     CLEAR     54  23  30 N12       30.20R
KLAMATH FALLS  CLEAR     61  29  29 NW13      30.07F
LAKEVIEW       CLEAR     57  23  26 N10       30.09S
HERMISTON        N/A     62  28  27 MISG      30.22S
PENDLETON      CLEAR     56  18  22 N7        30.22S
JOHN DAY       CLEAR     53  28  38 N10       30.16R
MEACHAM        CLEAR     44  24  45 VRB5      30.21S
LA GRANDE      CLEAR     50  26  39 W16G24    30.18S
BAKER CITY     CLEAR     51  24  34 NW22G29   30.14R
BURNS          CLEAR     53  19  26 NW15      30.11R
ROME             N/A     63  10  12 NW16      30.03S
ONTARIO        CLEAR     62  26  25 NW20G28   30.04S
$$



USA.gov is the U.S. government's official web portal to all federal, state and local government web resources and services.